When you browse on this site, cookies collect data to enhance your experience and personalize the content and advertising you see.
Visit our Privacy Policy to learn more. By continuing to use the site, you agree to this use of cookies and data.
  • en Suisse
  • Liste des pays
  • À 7 jours
  • Température de l'eau
  • Carte météo
  • Widgets météo
  • user-avatar
    Se connecter

    Météo par heure à Mazarron

    Ce jour, 13 Décembre, Vendredi

    Heure Température Précipitation Vent Pression Humidité
    00:00 +12°C° 0 mm 9 m/s 745 mmHg 61%
    01:00 +12°C° 0 mm 8 m/s 745 mmHg 63%
    02:00 +12°C° 0 mm 8 m/s 744 mmHg 66%
    03:00 +12°C° 0 mm 7 m/s 744 mmHg 68%
    04:00 +12°C° 0 mm 7 m/s 744 mmHg 68%
    05:00 +14°C° 0 mm 7 m/s 744 mmHg 69%
    06:00 +14°C° 0 mm 7 m/s 744 mmHg 69%
    07:00 +15°C° 0 mm 7 m/s 744 mmHg 67%
    08:00 +15°C° 0 mm 7 m/s 745 mmHg 65%
    09:00 +16°C° 0 mm 8 m/s 745 mmHg 63%
    10:00 +17°C° 0 mm 8 m/s 745 mmHg 57%
    11:00 +18°C° 0 mm 8 m/s 745 mmHg 51%
    12:00 +20°C° 0 mm 8 m/s 745 mmHg 45%
    13:00 +20°C° 0 mm 8 m/s 745 mmHg 46%
    14:00 +18°C° 0 mm 8 m/s 745 mmHg 47%
    15:00 +18°C° 0 mm 7 m/s 745 mmHg 48%
    16:00 +17°C° 0 mm 7 m/s 745 mmHg 53%
    17:00 +16°C° 0 mm 6 m/s 746 mmHg 57%
    18:00 +14°C° 0 mm 5 m/s 746 mmHg 62%
    19:00 +14°C° 0 mm 5 m/s 747 mmHg 64%
    20:00 +14°C° 0 mm 4 m/s 747 mmHg 65%
    21:00 +13°C° 0 mm 4 m/s 747 mmHg 67%
    22:00 +13°C° 0 mm 4 m/s 747 mmHg 69%
    23:00 +13°C° 0 mm 4 m/s 747 mmHg 70%

    Demain, 14 Décembre, Samedi

    Heure Température Précipitation Vent Pression Humidité
    00:00 +12°C° 0 mm 4 m/s 747 mmHg 72%
    01:00 +12°C° 0 mm 4 m/s 747 mmHg 73%
    02:00 +11°C° 0 mm 3 m/s 747 mmHg 75%
    03:00 +11°C° 0 mm 3 m/s 746 mmHg 77%
    04:00 +10°C° 0 mm 2 m/s 746 mmHg 78%
    05:00 +10°C° 0 mm 2 m/s 746 mmHg 78%
    06:00 +10°C° 0 mm 2 m/s 746 mmHg 79%
    07:00 +12°C° 0 mm 2 m/s 747 mmHg 74%
    08:00 +13°C° 0 mm 1 m/s 747 mmHg 68%
    09:00 +14°C° 0 mm 1 m/s 747 mmHg 63%
    10:00 +15°C° 0 mm 1 m/s 747 mmHg 58%
    11:00 +18°C° 0 mm 1 m/s 747 mmHg 54%
    12:00 +19°C° 0 mm 1 m/s 747 mmHg 49%
    13:00 +19°C° 0 mm 1 m/s 747 mmHg 48%
    14:00 +19°C° 0 mm 1 m/s 746 mmHg 48%
    15:00 +20°C° 0 mm 1 m/s 746 mmHg 48%
    16:00 +18°C° 0 mm 1 m/s 746 mmHg 55%
    17:00 +15°C° 0 mm 1 m/s 746 mmHg 63%
    18:00 +13°C° 0 mm 1 m/s 746 mmHg 71%
    19:00 +13°C° 0 mm 1 m/s 747 mmHg 72%
    20:00 +13°C° 0 mm 1 m/s 747 mmHg 72%
    21:00 +12°C° 0 mm 1 m/s 747 mmHg 72%
    22:00 +12°C° 0 mm 1 m/s 747 mmHg 72%
    23:00 +12°C° 0 mm 1 m/s 747 mmHg 72%

    Après-demain, 15 Décembre, Dimanche

    Heure Température Précipitation Vent Pression Humidité
    00:00 +12°C° 0 mm 1 m/s 747 mmHg 72%
    01:00 +12°C° 0 mm 1 m/s 746 mmHg 72%
    02:00 +11°C° 0 mm 1 m/s 746 mmHg 73%
    03:00 +11°C° 0 mm 1 m/s 746 mmHg 73%
    04:00 +11°C° 0 mm 1 m/s 746 mmHg 74%
    05:00 +10°C° 0 mm 2 m/s 746 mmHg 74%
    06:00 +10°C° 0 mm 2 m/s 745 mmHg 74%
    07:00 +12°C° 0 mm 2 m/s 746 mmHg 71%
    08:00 +13°C° 0 mm 2 m/s 746 mmHg 67%
    09:00 +14°C° 0 mm 2 m/s 746 mmHg 63%
    10:00 +15°C° 0 mm 2 m/s 746 mmHg 59%
    11:00 +16°C° 0 mm 1 m/s 746 mmHg 55%
    12:00 +18°C° 0 mm 1 m/s 746 mmHg 51%
    13:00 +18°C° 0 mm 1 m/s 745 mmHg 51%
    14:00 +18°C° 0 mm 1 m/s 744 mmHg 51%
    15:00 +18°C° 0 mm 1 m/s 744 mmHg 52%
    16:00 +16°C° 0 mm 1 m/s 744 mmHg 60%
    17:00 +14°C° 0 mm 1 m/s 744 mmHg 68%
    18:00 +13°C° 0 mm 1 m/s 744 mmHg 77%
    19:00 +11°C° 0 mm 0 m/s 743 mmHg 78%
    20:00 +11°C° 0 mm 0 m/s 743 mmHg 80%
    21:00 +11°C° 0 mm 0 m/s 743 mmHg 81%
    22:00 +10°C° 0 mm 0 m/s 743 mmHg 82%
    23:00 +10°C° 0 mm 0 m/s 742 mmHg 83%

    16 Décembre, Lundi

    Heure Température Précipitation Vent Pression Humidité
    00:00 +10°C° 0 mm 0 m/s 742 mmHg 84%
    01:00 +10°C° 0 mm 0 m/s 742 mmHg 85%
    02:00 +10°C° 0 mm 0 m/s 741 mmHg 85%
    03:00 +9°C° 0 mm 0 m/s 741 mmHg 86%
    04:00 +9°C° 0 mm 0 m/s 740 mmHg 87%
    05:00 +9°C° 0 mm 0 m/s 740 mmHg 88%
    06:00 +9°C° 0 mm 0 m/s 739 mmHg 89%
    07:00 +10°C° 0 mm 0 m/s 739 mmHg 85%
    08:00 +11°C° 0 mm 0 m/s 739 mmHg 82%
    09:00 +12°C° 0 mm 0 m/s 739 mmHg 78%
    10:00 +13°C° 0 mm 0 m/s 739 mmHg 76%
    11:00 +15°C° 0 mm 1 m/s 738 mmHg 73%
    12:00 +15°C° 0 mm 1 m/s 738 mmHg 71%
    13:00 +15°C° 0 mm 1 m/s 737 mmHg 71%
    14:00 +16°C° 0 mm 1 m/s 736 mmHg 71%
    15:00 +16°C° 0 mm 1 m/s 735 mmHg 72%
    16:00 +14°C° 0 mm 1 m/s 735 mmHg 78%
    17:00 +13°C° 0 mm 1 m/s 735 mmHg 85%
    18:00 +11°C° 0 mm 1 m/s 735 mmHg 92%
    19:00 +10°C° 0 mm 2 m/s 735 mmHg 92%
    20:00 +10°C° 0 mm 3 m/s 735 mmHg 92%
    21:00 +11°C° 0 mm 3 m/s 735 mmHg 92%
    22:00 +11°C° 0 mm 3 m/s 735 mmHg 91%
    23:00 +11°C° 0 mm 3 m/s 735 mmHg 91%

    17 Décembre, Mardi

    Heure Température Précipitation Vent Pression Humidité
    00:00 +11°C° 0 mm 3 m/s 735 mmHg 91%
    01:00 +10°C° 0 mm 4 m/s 734 mmHg 90%
    02:00 +10°C° 0 mm 4 m/s 734 mmHg 89%
    03:00 +9°C° 0 mm 5 m/s 734 mmHg 88%
    04:00 +9°C° 0 mm 5 m/s 734 mmHg 86%
    05:00 +8°C° 0 mm 6 m/s 735 mmHg 85%
    06:00 +8°C° 0 mm 6 m/s 735 mmHg 84%
    07:00 +9°C° 0 mm 6 m/s 735 mmHg 81%
    08:00 +9°C° 0 mm 6 m/s 735 mmHg 78%
    09:00 +10°C° 0 mm 6 m/s 736 mmHg 75%
    10:00 +12°C° 0 mm 5 m/s 736 mmHg 71%
    11:00 +13°C° 0 mm 4 m/s 736 mmHg 67%
    12:00 +13°C° 0 mm 3 m/s 736 mmHg 63%
    13:00 +13°C° 0.1 mm 3 m/s 736 mmHg 63%
    14:00 +13°C° 0.1 mm 3 m/s 736 mmHg 63%
    15:00 +13°C° 0.1 mm 3 m/s 737 mmHg 64%
    16:00 +12°C° 0.1 mm 4 m/s 737 mmHg 65%
    17:00 +12°C° 0.1 mm 4 m/s 738 mmHg 67%
    18:00 +10°C° 0.1 mm 5 m/s 738 mmHg 68%
    19:00 +9°C° 0 mm 5 m/s 739 mmHg 68%
    20:00 +9°C° 0 mm 5 m/s 739 mmHg 68%
    21:00 +9°C° 0 mm 5 m/s 740 mmHg 69%
    22:00 +9°C° 0 mm 6 m/s 740 mmHg 68%
    23:00 +9°C° 0 mm 7 m/s 740 mmHg 68%

    18 Décembre, Mercredi

    Heure Température Précipitation Vent Pression Humidité
    00:00 +9°C° 0 mm 7 m/s 740 mmHg 68%
    01:00 +9°C° 0 mm 7 m/s 740 mmHg 69%
    02:00 +9°C° 0 mm 7 m/s 740 mmHg 69%
    03:00 +9°C° 0 mm 7 m/s 740 mmHg 69%
    04:00 +9°C° 0 mm 7 m/s 741 mmHg 68%
    05:00 +9°C° 0 mm 8 m/s 741 mmHg 66%
    06:00 +9°C° 0 mm 8 m/s 741 mmHg 64%
    07:00 +10°C° 0 mm 9 m/s 742 mmHg 62%
    08:00 +11°C° 0 mm 9 m/s 742 mmHg 59%
    09:00 +12°C° 0 mm 9 m/s 743 mmHg 57%
    10:00 +13°C° 0 mm 9 m/s 743 mmHg 54%
    11:00 +16°C° 0 mm 9 m/s 743 mmHg 52%
    12:00 +17°C° 0 mm 9 m/s 743 mmHg 49%
    13:00 +17°C° 0 mm 8 m/s 743 mmHg 50%
    14:00 +17°C° 0 mm 8 m/s 743 mmHg 50%
    15:00 +17°C° 0 mm 7 m/s 743 mmHg 51%
    16:00 +16°C° 0 mm 6 m/s 744 mmHg 53%
    17:00 +15°C° 0 mm 5 m/s 744 mmHg 56%
    18:00 +14°C° 0 mm 5 m/s 745 mmHg 59%
    19:00 +13°C° 0 mm 4 m/s 745 mmHg 61%
    20:00 +13°C° 0 mm 4 m/s 746 mmHg 62%
    21:00 +12°C° 0 mm 3 m/s 746 mmHg 63%
    22:00 +12°C° 0 mm 3 m/s 746 mmHg 64%
    23:00 +13°C° 0 mm 2 m/s 746 mmHg 64%
    Voir plus